Regional Weather Roundup
Issued by NWS Grand Forks, ND

Home | Current Version | Previous Version | Text Only | Print | Product List | Glossary Off
Versions: 1 2 3 4 5 6 7 8 9 10 11 12 13 14 15 16 17 18 19 20 21 22 23 24 25 26 27 28 29 30 31 32 33 34 35 36 37 38 39 40 41 42 43 44 45 46 47 48 49 50

000
ASUS43 KFGF 140131
RWRFGF
PRAIRIE TO PINES  WEATHER ROUNDUP
NATIONAL WEATHER SERVICE EASTERN NORTH DAKOTA/GRAND FORKS ND
700 PM CST SAT FEB 13 2016

 **SATELLITE DATA USED TO AUGMENT SKY COVER AT AUTOMATED STATIONS**
 *****  WEATHER ACROSS EASTERN NORTH DAKOTA  *****

CITY           SKY/WX    TMP DP  RH WIND       PRES   REMARKS
GRAND FORKS    CLOUDY    13   1  59 SE21      30.18F WCI  -5
GRAND FRKS AFB CLOUDY    12   1  59 S17G29    30.16F WCI  -5
DEVILS LAKE    FLURRIES   9   2  73 SE23G29   30.02F WCI -11
FARGO          CLOUDY    15   2  56 SE23      30.18F WCI  -3
WAHPETON ARPT  CLOUDY    12   0  57 SE23G31   30.19F WCI  -7
$$

 ***** WEATHER ACROSS CENTRAL AND WESTERN NORTH DAKOTA  *****

CITY           SKY/WX    TMP DP  RH WIND       PRES   REMARKS
BISMARCK       FLURRIES  18  12  77 SE15      29.92F WCI   4
MINOT          HVY SNOW  17  10  74 SE14      29.86F VSB 1/4 WCI   3
JAMESTOWN      CLOUDY     9   3  77 SE16      30.03F WCI  -8
MINOT AFB      LGT SNOW  16  14  93 SE15      29.85F VSB 1   WCI   1
GARRISON         N/A     15  11  83 S14       29.87S WCI   0
WILLISTON      CLOUDY    23  19  85 CALM      29.78S
DICKINSON      CLOUDY    23  21  92 S10       29.77F WCI  12
HETTINGER      CLOUDY    24  21  88 CALM      29.83S
$$

 *****  OTHER AIRPORT OBSERVATIONS IN OUR AREA  *****

CITY           SKY/WX    TMP DP  RH WIND       PRES   REMARKS
WALHALLA       FAIR       9   1  72 SE18G25   30.10F WCI -10
GRAFTON AIRPOR CLOUDY    10   1  67 SE23      30.17F WCI -10
VALLEY CITY AR CLOUDY     9   3  78 SE18G24   30.10F WCI -10
CANDO          CLOUDY     9   5  85 SE24G30   30.02F FOG     WCI -12
CAVALIER APRT  CLOUDY    10   0  61 SE17G26   30.13F WCI  -7
GWINNER        CLOUDY    12   7  79 SE20G26   30.09F WCI  -6
SHEYENNE NWR     N/A     10   1  66 SE15      29.95S WCI  -7
ROLLA          CLOUDY     7   1  78 S23G31    29.94F FOG     WCI -14
 ***** THE ABOVE OBSERVATIONS ARE NON NWS ARE NOT QUALITY
       CONTROLLED AND MAY MIS-REPORT RAIN FOR SNOW...
$$

  *****  WEATHER ACROSS NORTHERN MINNESOTA  *****

CITY           SKY/WX    TMP DP  RH WIND       PRES   REMARKS
FLAG ISLAND    CLOUDY     1 -13  51 SE6       30.24F WCI -10
WARROAD        CLOUDY     1 -11  55 SE8       30.23F WCI -12
ROSEAU         CLOUDY     5  -9  51 SE10      30.21F WCI -10
HALLOCK        CLOUDY    10   0  61 SE15      30.17F WCI  -6
THF RVR FALLS  CLOUDY    12  -8  40 SE20      30.18F WCI  -6
BAUDETTE       CLOUDY     2 -14  47 SE9       30.25F WCI -13
WASKISH        CLOUDY     3 -11  51 E6        30.26F WCI  -8
CROOKSTON      CLOUDY    12   0  57 S22       30.20F WCI  -7
STEPHEN NDAWN    N/A     10   0  61 SE12        N/A  WCI  -4
GREENBUSH NDAW   N/A      7  -6  56 SE10        N/A  WCI  -8
$$
  *****  WEATHER ACROSS CENTRAL AND WEST MINNESOTA  *****

CITY           SKY/WX    TMP DP  RH WIND       PRES   REMARKS
FOSSTON        CLOUDY     9  -9  43 SE14G21   30.19F WCI  -8
BEMIDJI        CLOUDY     3 -11  51 SE12      30.24F WCI -13
PARK RAPIDS    CLOUDY     6 -10  47 SE12      30.25F WCI  -9
ELBOW LAKE     CLOUDY    10   0  63 E16G25    30.23R WCI  -7
WADENA         CLOUDY     7  -6  56 SE13      30.24F WCI  -9
DETROIT LAKES  CLOUDY     9   0  66 SE16      30.20F WCI  -9
MOORHEAD       CLOUDY    12   1  62 SE20G25   30.19F WCI  -6
FERGUS FALLS   CLOUDY    12  -2  52 SE18G25   30.25F WCI  -5
MORRIS MN      CLOUDY    10   0  61 SE22G28   30.23S WCI  -9
STAPLES        CLOUDY     3  -8  60 SE6       30.26F WCI  -8
$$
  *****  WEATHER ELSEWHERE ACROSS MINNESOTA  *****

CITY           SKY/WX    TMP DP  RH WIND       PRES   REMARKS
DULUTH         CLOUDY     1 -13  51 E3        30.33F
INTRNTL FALLS  CLOUDY    -4 -15  59 E8        30.30F WCI -19
ELY            CLOUDY    -9 -15  77 CALM      30.32F
CLOQUET        CLOUDY    -2 -17  50 CALM      30.34F
WHEATON        CLOUDY    10   3  72 SE24      30.21F WCI -10
BRAINERD       CLOUDY     1 -11  57 CALM      30.32F
HIBBING        CLOUDY    -4 -14  62 SE5       30.32F WCI -15
ALEXANDRIA     CLOUDY     9  -1  64 SE17      30.23F WCI  -9
SAINT CLOUD    CLOUDY     8  -8  48 SE7       30.35F WCI  -3
MINNEAPOLIS    CLOUDY     7  -8  50 SE8       30.42F WCI  -6
$$

  *****  WEATHER ACROSS SOUTH DAKOTA  *****

CITY           SKY/WX    TMP DP  RH WIND       PRES   REMARKS
SIOUX FALLS    FLURRIES  11   5  77 SE20G28   30.20F WCI  -7
BROOKINGS      LGT SNOW   9   3  77 S18G26    30.15S WCI -10
WATERTOWN      CLOUDY    10   1  67 S17G29    30.09F WCI  -8
HURON          FLURRIES  13   8  81 SE21G33   30.04F WCI  -5
SISSETON         N/A     10   3  73 S24G30    30.16F WCI -10
ABERDEEN       LGT SNOW  15   9  76 S23       30.04S WCI  -3
MITCHELL       LGT SNOW  14   8  77 SE28G37   30.12F WCI  -6
PIERRE         CLOUDY    26  22  84 SE25      29.84F WCI  11
MOBRIDGE       LGT SNOW  21  16  81 SE20      29.86F WCI   6
RAPID CITY     LGT RAIN  34  32  92 N29G37    29.85R FOG     WCI  20
$$

  *****  SOME WEATHER IN NEARBY STATES *****

CITY           SKY/WX    TMP DP  RH WIND       PRES   REMARKS
GLASGOW MT     CLOUDY    39  31  72 NW23G32   29.83R
GREAT FALLS MT CLEAR     37  20  50 SW12      29.99R
CHEYENNE WY    PTCLDY    46  13  26 W22G30    29.96R
SCOTTSBLUFF NE CLEAR     54  20  26 W28G39    29.83R
OMAHA NE       CLOUDY    19   3  49 SE16      30.28F WCI   4
DES MOINES IA  CLOUDY    15   0  51 SE10      30.38F WCI   2
DAVENPORT IA   PTCLDY    15  -4  42 E9        30.47F WCI   3
CHICAGO IL     PTCLDY    12  -3  51 NW5       30.49S WCI   4
EAU CLAIRE WI  CLOUDY     0 -15  49 E5        30.44F WCI -10
LA CROSSE WI   CLOUDY     4  -7  60 CALM      30.47F
$$

  *****  SOME NATIONAL WEATHER *****

CITY           SKY/WX    TMP DP  RH WIND       PRES   REMARKS
LA GUARDIA NY  PTCLDY    10  -7  46 NW29G39   30.31R WCI -12
RALEIGH NC     CLEAR     27  -3  27 NW3       30.40R
ATLANTA GA     CLEAR     36   4  26 N12       30.38R
NEW ORLEANS LA CLEAR     56  32  40 CALM      30.34R
OKLAHOMA CITY  MOCLDY    51  34  52 SE14      30.07S
ALBUQUERQUE NM PTCLDY    63  13  14 S8        30.08F
SALT LAKE CITY FOG       31  28  89 NW7       30.31S VSB 1/8 WCI  24
LOS ANGELES CA PTCLDY    57  52  83 W8        30.03F
BOISE ID       CLOUDY    47  26  44 N3        30.25F
SEATTLE WA     LGT RAIN  45  42  89 S14       30.12F
$$

*** WEATHER ACROSS MANITOBA...SASKATCHEWAN AND ONTARIO ***
                ***ONTARIO***

CITY           SKY/WX    TMP DP  RH WIND       PRES   REMARKS
GERALDTON      CLEAR    -13 -18  77 SW3       30.36F
THUNDER BAY    PTCLDY    -6 -13  71 W3        30.44S
SIOUX LOOKOUT  PTCLDY   -11 -17  77 SE5       30.30F WCI -23
TORONTO        CLEAR     -6 -15  65 N12       30.42R WCI -24
BIG TROUT LK   CLEAR    -11 -17  77 S6        30.28F WCI -25
PICKLE LAKE    CLEAR     -6 -13  71 S8        30.29F WCI -21
DRYDEN         CLEAR     -2 -11  65 S6        30.28F WCI -14
KENORA         PTCLDY    -2 -11  65 SE10      30.24F WCI -19
$$
                *** MANITOBA***

CITY           SKY/WX    TMP DP  RH WIND       PRES   REMARKS
BRANDON        LGT SNOW   7   3  85 S16G23    29.99F DRFTSNOWWCI -11
DAUPHIN        CLOUDY     5   0  78 SE14      29.97F WCI -12
ISLAND LAKE    PTCLDY     0  -8  71 SE8       30.18F WCI -15
PILOT MOUND      N/A      7   3  85 SE26G32     N/A  WCI -16
THE PAS        CLOUDY     9  -4  56 S13       29.91S WCI  -7
THOMPSON       MOCLDY     1  -8  66 S5        30.00F WCI  -8
WINNIPEG       MOCLDY     5  -9  51 SE23      30.16F WCI -17
LYNN LAKE      CLOUDY     9   0  66 S13G18    29.76F WCI  -7
CHURCHILL      MOCLDY     1  -8  66 S17G25    30.00F WCI -19
GILLAM         CLOUDY     1 -11  55 S13       30.11F WCI -16
$$
                ***SASKATCHEWAN***

CITY           SKY/WX    TMP DP  RH WIND       PRES   REMARKS
ESTEVAN        LGT SNOW  16  12  86 SE7       29.79F WCI   6
KINDERSLEY     FOG       19  18  93 SW5       29.80S VSB 1/2 WCI  13
LLOYDMINSTER   MOCLDY    30  27  86 W14       29.74S WCI  20
PRINCE ALBERT  FRZ DRZL  12   7  79 VRB2      29.80S
REGINA         CLOUDY    21  16  79 SE13      29.76R WCI   9
YORKTON        FLURRIES   9   5  85 SE14      29.84F WCI  -8
N. BATTLEFORD  CLOUDY    21  18  86 SE3       29.80S
LA RONGE       FLURRIES  10   5  79 S9        29.74F WCI  -2
SASKATOON      CLOUDY    19  16  86 W9        29.82R WCI   9
SWIFT CURRENT  CLOUDY    28  28 100 W14       29.80R FOG     WCI  17
$$
NOTE: THESE ARE AUTOMATED STATIONS WITH LIMITED QUALITY CONTROL
      "FAIR" INDICATES FEW OR NO CLOUDS BELOW 12,000 FEET WITH NO
      SIGNIFICANT WEATHER AND/OR OBSTRUCTIONS TO VISIBILITY.
      SKY/WX - SKY CONDITION AND SIGNIFICANT WEATHER.
      TMP - AIR TEMPERATURE.    DP   - DEWPOINT TEMPERATURE.
      RH  - RELATIVE HUMIDITY.  PRES - PRESSURE.
      HX  - HEAT INDEX.         WCI  - WIND CHILL INDEX.
$



USA.gov is the U.S. government's official web portal to all federal, state and local government web resources and services.